カタログに戻る

SL-12 DEB

LostHEO
NORAD 45040·DEBRIS·🇷🇺 Russia

打ち上げ Dec 14, 2009 から Baikonur Cosmodrome

Loading…

次のパス (今後24時間)

TLE

古いSource: Space-Track

元期: Dec 12, 2021, 10:28 UTC

1 45040U 09070R   21346.43666282  .00044443  00000-0  17038-1 0  9991
2 45040  64.4838  99.6391 5352844   0.2920 359.8964  4.98437881 31447

AllMySatでSL-12 DEBをリアルタイム追跡

Download on the App Store